Flag for Australia Weather past 2 weeks in Melbourne, Victoria, Australia

Now
55 °F

Clear.


Feels Like: 53 °F
Forecast: 51 / 74 °F
Wind: 10 mph from North

Location: Melbourne Airport

Current Time: Sep 22, 2014 at 8:39:31 PM

Latest Report: Sep 22, 2014 at 8:00 PM


Visibility: 10 mi

Pressure: 30.33 "Hg

Humidity: 67%

Dew point: 45 °F

Location of MelbourneLocation

Historic Weather in Melbourne — Graph

°F

Melbourne temperature yesterday

Maximum temperature yesterday: 61 °F (at 1:30 PM)
Minimum temperature yesterday: 43 °F (at 10:30 PM)
Average temperature yesterday: 53 °F

Past Weeks' High & Low Weather Summary

 TemperatureHumidityPressure
High72 °F (Sep 22, 1:00 PM)100% (Sep 15, 12:30 AM)30.45 "Hg (Sep 15, 12:30 AM)
Low37 °F (Sep 13, 3:00 AM)32% (Sep 8, 8:00 PM)29.59 "Hg (Sep 9, 2:00 PM)
Average53 °F72%30.10 "Hg
* Reported Sep 7 7:00 PM — Sep 22 7:00 PM, Melbourne, Weather by CustomWeather, © 2014

Note: Actual official high and low records may vary slightly from our data, if they occured in-between our weather recording intervals... More about our weather records

Advertising

Melbourne weather history for previous 24 hours

 ConditionsComfort  
Time TempWeatherWind HumidityBarometerVisibility
7:00 PM
Sep 22
57 °FClear.9 mph67%30.30 "Hg10 mi
6:30 PM63 °FClear.10 mph56%30.30 "Hg10 mi
6:00 PM64 °FClear.13 mph49%30.30 "Hg10 mi
5:30 PM68 °FClear.15 mph43%30.27 "Hg10 mi
5:00 PM70 °FSunny.18 mph40%30.27 "Hg10 mi
4:30 PM70 °FSunny.17 mph40%30.27 "Hg10 mi
4:00 PM72 °FSunny.18 mph36%30.27 "Hg10 mi
3:30 PM72 °FSunny.17 mph36%30.27 "Hg10 mi
3:00 PM72 °FSunny.18 mph36%30.27 "Hg10 mi
2:30 PM72 °FSunny.17 mph38%30.30 "Hg10 mi
2:00 PM72 °FSunny.17 mph41%30.30 "Hg10 mi
1:30 PM72 °FSunny.17 mph38%30.30 "Hg10 mi
1:00 PM72 °FSunny.17 mph41%30.33 "Hg10 mi
12:30 PM70 °FSunny.17 mph40%30.33 "Hg10 mi
12:00 PM70 °FSunny.15 mph43%30.33 "Hg10 mi
11:30 AM68 °FSunny.14 mph43%30.36 "Hg10 mi
11:00 AM68 °FSunny.15 mph43%30.36 "Hg10 mi
10:00 AM64 °FSunny.9 mph56%30.39 "Hg10 mi
9:30 AM61 °FSunny.6 mph59%30.39 "Hg10 mi
9:00 AM57 °FSunny.8 mph63%30.39 "Hg10 mi
8:30 AM52 °FSunny.3 mph77%30.39 "Hg10 mi
8:00 AM46 °FSunny.5 mph87%30.39 "Hg10 mi
7:30 AM46 °FSunny.8 mph82%30.39 "Hg10 mi
7:00 AM43 °FSunny.12 mph87%30.39 "Hg10 mi
6:00 AM39 °FSunny.10 mph93%30.39 "Hg10 mi
5:30 AM39 °FSunny.10 mph93%30.36 "Hg10 mi
5:00 AM39 °FClear.12 mph93%30.36 "Hg10 mi
4:00 AM39 °FClear.10 mph93%30.36 "Hg10 mi
3:30 AM39 °FClear.10 mph93%30.36 "Hg10 mi
3:00 AM39 °FClear.12 mph93%30.36 "Hg10 mi
2:30 AM39 °FClear.10 mph93%30.39 "Hg10 mi
2:00 AM41 °FClear.10 mph87%30.39 "Hg10 mi
1:30 AM41 °FClear.12 mph93%30.39 "Hg10 mi
1:00 AM41 °FClear.10 mph93%30.39 "Hg10 mi
12:00 AM43 °FClear.7 mph87%30.39 "Hg10 mi
11:30 PM
Sep 21
43 °FClear.5 mph93%30.39 "Hg10 mi
11:00 PM43 °FClear.5 mph87%30.42 "Hg10 mi
10:30 PM43 °FClear.1 mph93%30.42 "Hg10 mi
10:00 PM45 °FClear.No wind87%30.42 "Hg10 mi
9:30 PM48 °FClear.1 mph82%30.42 "Hg10 mi
9:00 PM48 °FClear.5 mph82%30.42 "Hg10 mi
8:30 PM48 °FClear.5 mph82%30.42 "Hg10 mi
8:00 PM48 °FClear.6 mph82%30.42 "Hg10 mi
Weather by CustomWeather, © 2014

See weather overviewHow to use our weather pages